Time,TemperatureF,DewpointF,PressureIn,WindDirection,WindDirectionDegrees,WindSpeedMPH,WindSpeedGustMPH,Humidity,HourlyPrecipIn,Conditions,Clouds,dailyrainin,SolarRadiationWatts/m^2,SoftwareType,DateUTC
2013-04-13 00:00:00,40.8,34.8,29.84,SW,225,3.0,6.0,79,0.00,,---,0.41,0.00,VWS V14.01,2013-04-13 04:00:00,
2013-04-13 00:02:00,40.9,34.9,29.84,SW,217,4.0,5.0,79,0.00,,---,0.00,0.00,VWS V14.01,2013-04-13 04:02:00,
2013-04-13 00:07:00,41.0,35.0,29.85,SSW,212,4.0,9.0,79,0.00,,---,0.00,0.00,VWS V14.01,2013-04-13 04:07:00,
2013-04-13 00:12:00,41.1,35.1,29.85,SW,222,3.0,9.0,79,0.00,,---,0.00,0.00,VWS V14.01,2013-04-13 04:12:00,
2013-04-13 00:17:00,41.1,35.1,29.85,SW,219,3.0,9.0,79,0.00,,---,0.00,0.00,VWS V14.01,2013-04-13 04:17:00,
2013-04-13 00:22:00,41.3,35.3,29.85,SW,220,5.0,9.0,79,0.00,,---,0.00,0.00,VWS V14.01,2013-04-13 04:22:00,
2013-04-13 00:27:00,41.4,35.4,29.85,SW,227,4.0,9.0,79,0.00,,---,0.00,0.00,VWS V14.01,2013-04-13 04:27:00,
2013-04-13 00:30:00,41.4,35.4,29.85,SW,229,8.0,10.0,79,0.00,,---,0.00,0.00,VWS V14.01,2013-04-13 04:30:00,
2013-04-13 00:32:00,41.4,35.4,29.85,SSW,210,3.0,8.0,79,0.00,,---,0.00,0.00,VWS V14.01,2013-04-13 04:32:00,
2013-04-13 00:37:00,41.5,35.5,29.85,SW,221,5.0,8.0,79,0.00,,---,0.00,0.00,VWS V14.01,2013-04-13 04:37:00,
2013-04-13 00:42:00,41.5,35.5,29.85,SW,223,3.0,8.0,79,0.00,,---,0.00,0.00,VWS V14.01,2013-04-13 04:42:00,
2013-04-13 00:47:00,41.6,35.6,29.85,SW,232,2.0,8.0,79,0.00,,---,0.00,0.00,VWS V14.01,2013-04-13 04:47:00,
2013-04-13 00:52:00,41.6,35.6,29.85,SW,234,5.0,8.0,79,0.00,,---,0.00,0.00,VWS V14.01,2013-04-13 04:52:00,
2013-04-13 00:57:00,41.6,35.6,29.85,SW,229,4.0,8.0,79,0.00,,---,0.00,0.00,VWS V14.01,2013-04-13 04:57:00,
2013-04-13 01:00:00,41.7,35.7,29.86,SSW,211,4.0,8.0,79,0.00,,---,0.00,0.00,VWS V14.01,2013-04-13 05:00:00,
2013-04-13 01:02:00,41.7,35.7,29.86,SW,228,6.0,8.0,79,0.00,,---,0.00,0.00,VWS V14.01,2013-04-13 05:02:00,
2013-04-13 01:07:00,41.7,35.7,29.86,SSW,201,6.0,9.0,79,0.00,,---,0.00,0.00,VWS V14.01,2013-04-13 05:07:00,
2013-04-13 01:12:00,41.7,35.7,29.86,SSW,208,5.0,9.0,79,0.00,,---,0.00,0.00,VWS V14.01,2013-04-13 05:12:00,
2013-04-13 01:17:00,41.8,35.8,29.87,SW,225,6.0,9.0,79,0.00,,---,0.00,0.00,VWS V14.01,2013-04-13 05:17:00,
2013-04-13 01:22:00,41.8,36.1,29.87,WSW,242,6.0,9.0,80,0.00,,---,0.00,0.00,VWS V14.01,2013-04-13 05:22:00,
2013-04-13 01:27:00,41.8,36.1,29.87,SW,228,5.0,10.0,80,0.00,,---,0.00,0.00,VWS V14.01,2013-04-13 05:27:00,
2013-04-13 01:30:00,41.8,36.1,29.87,SW,229,5.0,10.0,80,0.00,,---,0.00,0.00,VWS V14.01,2013-04-13 05:30:00,
2013-04-13 01:32:00,41.8,36.1,29.87,WSW,242,3.0,7.0,80,0.00,,---,0.00,0.00,VWS V14.01,2013-04-13 05:32:00,
2013-04-13 01:37:00,41.8,36.1,29.87,WSW,239,2.0,7.0,80,0.00,,---,0.00,0.00,VWS V14.01,2013-04-13 05:37:00,
2013-04-13 01:43:00,41.8,36.1,29.87,WSW,242,2.0,7.0,80,0.00,,---,0.00,0.00,VWS V14.01,2013-04-13 05:43:00,
2013-04-13 01:48:00,41.8,36.1,29.87,SW,218,4.0,7.0,80,0.00,,---,0.00,0.00,VWS V14.01,2013-04-13 05:48:00,
2013-04-13 01:53:00,41.8,36.1,29.87,SW,222,3.0,7.0,80,0.00,,---,0.00,0.00,VWS V14.01,2013-04-13 05:53:00,
2013-04-13 01:58:00,41.8,36.1,29.87,SW,230,3.0,7.0,80,0.00,,---,0.00,0.00,VWS V14.01,2013-04-13 05:58:00,
2013-04-13 02:00:00,41.8,36.1,29.87,SW,231,2.0,7.0,80,0.00,,---,0.00,0.00,VWS V14.01,2013-04-13 06:00:00,
2013-04-13 02:03:00,41.8,36.1,29.86,SW,220,3.0,6.0,80,0.00,,---,0.00,0.00,VWS V14.01,2013-04-13 06:03:00,
2013-04-13 02:08:00,41.8,36.1,29.86,SW,226,4.0,6.0,80,0.00,,---,0.00,0.00,VWS V14.01,2013-04-13 06:08:00,
2013-04-13 02:13:00,41.8,36.1,29.86,SW,226,2.0,6.0,80,0.00,,---,0.00,0.00,VWS V14.01,2013-04-13 06:13:00,
2013-04-13 02:18:00,41.8,36.1,29.86,SW,225,3.0,6.0,80,0.00,,---,0.00,0.00,VWS V14.01,2013-04-13 06:18:00,
2013-04-13 02:23:00,41.8,36.1,29.87,SW,225,2.0,6.0,80,0.00,,---,0.00,0.00,VWS V14.01,2013-04-13 06:23:00,
2013-04-13 02:28:00,41.8,36.4,29.87,SW,232,3.0,6.0,81,0.00,,---,0.00,0.00,VWS V14.01,2013-04-13 06:28:00,
2013-04-13 02:30:00,41.7,36.3,29.87,SW,232,2.0,6.0,81,0.00,,---,0.00,0.00,VWS V14.01,2013-04-13 06:30:00,
2013-04-13 02:33:00,41.7,36.3,29.87,SW,234,3.0,4.0,81,0.00,,---,0.00,0.00,VWS V14.01,2013-04-13 06:33:00,
2013-04-13 02:38:00,41.7,36.3,29.87,WSW,237,2.0,5.0,81,0.00,,---,0.00,0.00,VWS V14.01,2013-04-13 06:38:00,
2013-04-13 02:43:00,41.7,36.3,29.87,WSW,248,5.0,6.0,81,0.00,,---,0.00,0.00,VWS V14.01,2013-04-13 06:43:00,
2013-04-13 02:48:00,41.7,36.6,29.86,SW,232,6.0,7.0,82,0.00,,---,0.00,0.00,VWS V14.01,2013-04-13 06:48:00,
2013-04-13 02:54:00,41.7,36.6,29.86,WSW,242,3.0,7.0,82,0.00,,---,0.00,0.00,VWS V14.01,2013-04-13 06:54:00,
2013-04-13 02:59:00,41.6,36.5,29.86,SW,232,4.0,7.0,82,0.00,,---,0.00,0.00,VWS V14.01,2013-04-13 06:59:00,
2013-04-13 03:00:00,41.6,36.5,29.86,WSW,240,3.0,7.0,82,0.00,,---,0.00,0.00,VWS V14.01,2013-04-13 07:00:00,
2013-04-13 03:04:00,41.7,36.6,29.86,WSW,240,3.0,4.0,82,0.00,,---,0.00,0.00,VWS V14.01,2013-04-13 07:04:00,
2013-04-13 03:09:00,41.6,36.5,29.86,WSW,243,5.0,5.0,82,0.00,,---,0.00,0.00,VWS V14.01,2013-04-13 07:09:00,
2013-04-13 03:14:00,41.6,36.5,29.86,SW,235,5.0,6.0,82,0.00,,---,0.00,0.00,VWS V14.01,2013-04-13 07:14:00,
2013-04-13 03:19:00,41.6,36.5,29.86,WSW,242,3.0,8.0,82,0.00,,---,0.00,0.00,VWS V14.01,2013-04-13 07:19:00,
2013-04-13 03:24:00,41.6,36.5,29.86,WSW,241,3.0,8.0,82,0.00,,---,0.00,0.00,VWS V14.01,2013-04-13 07:24:00,
2013-04-13 03:29:00,41.6,36.5,29.86,WSW,242,3.0,9.0,82,0.00,,---,0.00,0.00,VWS V14.01,2013-04-13 07:29:00,
2013-04-13 03:30:00,41.6,36.5,29.86,WSW,242,5.0,9.0,82,0.00,,---,0.00,0.00,VWS V14.01,2013-04-13 07:30:00,
2013-04-13 03:34:00,41.6,36.5,29.86,SW,226,5.0,7.0,82,0.00,,---,0.00,0.00,VWS V14.01,2013-04-13 07:34:00,
2013-04-13 03:39:00,41.6,36.5,29.86,WSW,248,7.0,10.0,82,0.00,,---,0.00,0.00,VWS V14.01,2013-04-13 07:39:00,
2013-04-13 03:44:00,41.6,36.5,29.86,WSW,246,9.0,11.0,82,0.00,,---,0.00,0.00,VWS V14.01,2013-04-13 07:44:00,
2013-04-13 03:49:00,41.7,36.6,29.86,WSW,242,5.0,12.0,82,0.00,,---,0.00,0.00,VWS V14.01,2013-04-13 07:49:00,
2013-04-13 03:55:00,41.8,36.4,29.86,WSW,251,9.0,12.0,81,0.00,,---,0.00,0.00,VWS V14.01,2013-04-13 07:55:00,
2013-04-13 04:00:00,41.9,36.5,29.86,WSW,238,4.0,12.0,81,0.00,,---,0.00,0.00,VWS V14.01,2013-04-13 08:00:00,
2013-04-13 04:05:00,41.9,36.5,29.86,SW,234,6.0,12.0,81,0.00,,---,0.00,0.00,VWS V14.01,2013-04-13 08:05:00,
2013-04-13 04:10:00,41.9,36.5,29.86,WSW,242,5.0,12.0,81,0.00,,---,0.00,0.00,VWS V14.01,2013-04-13 08:10:00,
2013-04-13 04:15:00,42.0,36.6,29.86,WSW,244,3.0,12.0,81,0.00,,---,0.00,0.00,VWS V14.01,2013-04-13 08:15:00,
2013-04-13 04:20:00,42.0,36.9,29.86,WSW,250,5.0,12.0,82,0.00,,---,0.00,0.00,VWS V14.01,2013-04-13 08:20:00,
2013-04-13 04:25:00,42.0,36.9,29.86,West,265,4.0,12.0,82,0.00,,---,0.00,0.00,VWS V14.01,2013-04-13 08:25:00,
2013-04-13 04:30:00,41.9,36.8,29.87,WSW,254,7.0,12.0,82,0.00,,---,0.00,0.00,VWS V14.01,2013-04-13 08:30:00,
2013-04-13 04:35:00,41.8,36.1,29.87,West,265,5.0,11.0,80,0.00,,---,0.00,0.00,VWS V14.01,2013-04-13 08:35:00,
2013-04-13 04:40:00,41.8,35.8,29.87,West,273,10.0,15.0,79,0.00,,---,0.00,0.00,VWS V14.01,2013-04-13 08:40:00,
2013-04-13 04:45:00,41.8,35.8,29.86,WSW,243,11.0,15.0,79,0.00,,---,0.00,0.00,VWS V14.01,2013-04-13 08:45:00,
2013-04-13 04:50:00,41.8,35.5,29.86,West,260,6.0,15.0,78,0.00,,---,0.00,0.00,VWS V14.01,2013-04-13 08:50:00,
2013-04-13 04:55:00,41.7,35.4,29.86,West,267,5.0,15.0,78,0.00,,---,0.00,0.00,VWS V14.01,2013-04-13 08:55:00,
2013-04-13 05:00:00,41.6,35.3,29.86,West,259,6.0,10.0,78,0.00,,---,0.00,0.00,VWS V14.01,2013-04-13 09:00:00,
2013-04-13 05:05:00,41.6,35.3,29.86,WSW,257,6.0,14.0,78,0.00,,---,0.00,0.00,VWS V14.01,2013-04-13 09:05:00,
2013-04-13 05:10:00,41.5,35.2,29.86,West,261,4.0,14.0,78,0.00,,---,0.00,0.00,VWS V14.01,2013-04-13 09:10:00,
2013-04-13 05:16:00,41.5,35.2,29.86,West,264,3.0,14.0,78,0.00,,---,0.00,0.00,VWS V14.01,2013-04-13 09:16:00,
2013-04-13 05:21:00,41.5,35.2,29.86,WSW,244,6.0,14.0,78,0.00,,---,0.00,0.00,VWS V14.01,2013-04-13 09:21:00,
2013-04-13 05:26:00,41.5,35.5,29.86,West,259,3.0,14.0,79,0.00,,---,0.00,0.00,VWS V14.01,2013-04-13 09:26:00,
2013-04-13 05:30:00,41.4,35.4,29.86,West,261,1.0,14.0,79,0.00,,---,0.00,0.00,VWS V14.01,2013-04-13 09:30:00,
2013-04-13 05:31:00,41.4,35.4,29.85,West,261,3.0,4.0,79,0.00,,---,0.00,0.00,VWS V14.01,2013-04-13 09:31:00,
2013-04-13 05:37:00,41.3,35.6,29.85,WSW,253,2.0,5.0,80,0.00,,---,0.00,0.00,VWS V14.01,2013-04-13 09:37:00,
2013-04-13 05:42:00,41.3,35.6,29.85,WSW,250,6.0,6.0,80,0.00,,---,0.00,0.00,VWS V14.01,2013-04-13 09:42:00,
2013-04-13 05:47:00,41.3,35.6,29.85,WSW,248,4.0,6.0,80,0.00,,---,0.00,0.00,VWS V14.01,2013-04-13 09:47:00,
2013-04-13 05:52:00,41.3,35.9,29.85,SW,236,1.0,7.0,81,0.00,,---,0.00,0.00,VWS V14.01,2013-04-13 09:52:00,
2013-04-13 05:57:00,41.2,35.8,29.86,WSW,254,6.0,7.0,81,0.00,,---,0.00,0.00,VWS V14.01,2013-04-13 09:57:00,
2013-04-13 06:00:00,41.2,35.8,29.86,WSW,237,5.0,7.0,81,0.00,,---,0.00,0.00,VWS V14.01,2013-04-13 10:00:00,
2013-04-13 06:02:00,41.1,35.7,29.85,WSW,241,4.0,5.0,81,0.00,,---,0.00,0.00,VWS V14.01,2013-04-13 10:02:00,
2013-04-13 06:07:00,41.1,35.7,29.85,WSW,239,4.0,5.0,81,0.00,,---,0.00,0.00,VWS V14.01,2013-04-13 10:07:00,
2013-04-13 06:12:00,41.0,35.9,29.85,SW,218,3.0,5.0,82,0.00,,---,0.00,0.00,VWS V14.01,2013-04-13 10:12:00,
2013-04-13 06:17:00,40.9,35.8,29.86,SW,234,3.0,7.0,82,0.00,,---,0.00,0.00,VWS V14.01,2013-04-13 10:17:00,
2013-04-13 06:22:00,40.7,35.6,29.86,WSW,239,2.0,7.0,82,0.00,,---,0.00,0.00,VWS V14.01,2013-04-13 10:22:00,
2013-04-13 06:27:00,40.7,35.6,29.86,SW,234,4.0,7.0,82,0.00,,---,0.00,0.00,VWS V14.01,2013-04-13 10:27:00,
2013-04-13 06:30:00,40.7,35.6,29.86,SW,233,4.0,7.0,82,0.00,,---,0.00,0.00,VWS V14.01,2013-04-13 10:30:00,
2013-04-13 06:33:00,40.6,35.5,29.86,WSW,248,5.0,7.0,82,0.00,,---,0.00,0.00,VWS V14.01,2013-04-13 10:33:00,
2013-04-13 06:38:00,40.6,35.5,29.86,WSW,249,4.0,7.0,82,0.00,,---,0.00,0.00,VWS V14.01,2013-04-13 10:38:00,
2013-04-13 06:43:00,40.6,35.5,29.86,WSW,239,3.0,7.0,82,0.00,,---,0.00,0.00,VWS V14.01,2013-04-13 10:43:00,
2013-04-13 06:48:00,40.7,35.6,29.86,SW,229,4.0,7.0,82,0.00,,---,0.00,0.00,VWS V14.01,2013-04-13 10:48:00,
2013-04-13 06:53:00,40.6,35.5,29.86,WSW,246,3.0,7.0,82,0.00,,---,0.00,0.00,VWS V14.01,2013-04-13 10:53:00,
2013-04-13 06:58:00,40.6,35.5,29.86,WSW,238,4.0,7.0,82,0.00,,---,0.00,0.00,VWS V14.01,2013-04-13 10:58:00,
2013-04-13 07:00:00,40.6,35.5,29.86,WSW,238,3.0,7.0,82,0.00,,---,0.00,0.00,VWS V14.01,2013-04-13 11:00:00,
2013-04-13 07:03:00,40.6,35.5,29.86,SW,230,3.0,6.0,82,0.00,,---,0.00,0.00,VWS V14.01,2013-04-13 11:03:00,
2013-04-13 07:08:00,40.6,35.5,29.86,SW,232,6.0,6.0,82,0.00,,---,0.00,7.00,VWS V14.01,2013-04-13 11:08:00,
2013-04-13 07:14:00,40.6,35.5,29.86,SW,229,6.0,9.0,82,0.00,,---,0.00,11.00,VWS V14.01,2013-04-13 11:14:00,
2013-04-13 07:19:00,40.6,35.2,29.87,SW,217,5.0,11.0,81,0.00,,---,0.00,14.00,VWS V14.01,2013-04-13 11:19:00,
2013-04-13 07:24:00,40.7,35.3,29.87,SW,224,2.0,11.0,81,0.00,,---,0.00,16.00,VWS V14.01,2013-04-13 11:24:00,
2013-04-13 07:29:00,40.7,35.3,29.87,SW,225,6.0,11.0,81,0.00,,---,0.00,21.00,VWS V14.01,2013-04-13 11:29:00,
2013-04-13 07:30:00,40.7,35.3,29.87,SSW,211,7.0,11.0,81,0.00,,---,0.00,21.00,VWS V14.01,2013-04-13 11:30:00,
2013-04-13 07:34:00,40.7,35.3,29.87,SW,220,3.0,10.0,81,0.00,,---,0.00,25.00,VWS V14.01,2013-04-13 11:34:00,
2013-04-13 07:39:00,40.7,35.3,29.87,SSW,213,7.0,11.0,81,0.00,,---,0.00,30.00,VWS V14.01,2013-04-13 11:39:00,
2013-04-13 07:44:00,40.8,35.4,29.87,SW,232,5.0,11.0,81,0.00,,---,0.00,32.00,VWS V14.01,2013-04-13 11:44:00,
2013-04-13 07:49:00,40.8,35.7,29.88,SW,224,4.0,11.0,82,0.00,,---,0.00,35.00,VWS V14.01,2013-04-13 11:49:00,
2013-04-13 07:55:00,40.8,35.4,29.88,SW,231,9.0,13.0,81,0.00,,---,0.00,42.00,VWS V14.01,2013-04-13 11:55:00,
2013-04-13 08:00:00,40.8,35.4,29.88,SW,226,7.0,13.0,81,0.00,,---,0.00,46.00,VWS V14.01,2013-04-13 12:00:00,
2013-04-13 08:05:00,40.8,35.7,29.88,WSW,239,7.0,12.0,82,0.00,,---,0.00,65.00,VWS V14.01,2013-04-13 12:05:00,
2013-04-13 08:10:00,40.9,35.5,29.88,SW,231,9.0,12.0,81,0.00,,---,0.00,65.00,VWS V14.01,2013-04-13 12:10:00,
2013-04-13 08:15:00,41.0,35.6,29.88,WSW,242,6.0,12.0,81,0.00,,---,0.00,72.00,VWS V14.01,2013-04-13 12:15:00,
2013-04-13 08:20:00,41.1,36.0,29.89,SW,229,6.0,12.0,82,0.00,,---,0.00,74.00,VWS V14.01,2013-04-13 12:20:00,
2013-04-13 08:25:00,41.1,36.0,29.89,SW,229,8.0,16.0,82,0.00,,---,0.00,83.00,VWS V14.01,2013-04-13 12:25:00,
2013-04-13 08:30:00,41.2,36.1,29.89,WSW,245,10.0,16.0,82,0.00,,---,0.00,95.00,VWS V14.01,2013-04-13 12:30:00,
2013-04-13 08:35:00,41.2,36.1,29.89,SW,220,7.0,13.0,82,0.00,,---,0.00,111.00,VWS V14.01,2013-04-13 12:35:00,
2013-04-13 08:40:00,41.3,36.2,29.89,SW,216,10.0,13.0,82,0.00,,---,0.00,141.00,VWS V14.01,2013-04-13 12:40:00,
2013-04-13 08:45:00,41.4,36.3,29.88,SW,234,4.0,13.0,82,0.00,,---,0.00,158.00,VWS V14.01,2013-04-13 12:45:00,
2013-04-13 08:50:00,41.5,36.4,29.89,WSW,237,7.0,13.0,82,0.00,,---,0.00,163.00,VWS V14.01,2013-04-13 12:50:00,
2013-04-13 08:55:00,41.6,36.5,29.89,SW,234,11.0,15.0,82,0.00,,---,0.00,158.00,VWS V14.01,2013-04-13 12:55:00,
2013-04-13 09:00:00,41.7,36.3,29.89,WSW,242,6.0,15.0,81,0.00,,---,0.00,153.00,VWS V14.01,2013-04-13 13:00:00,
2013-04-13 09:01:00,41.7,36.3,29.89,WSW,256,13.0,13.0,81,0.00,,---,0.00,158.00,VWS V14.01,2013-04-13 13:01:00,
2013-04-13 09:06:00,41.9,36.8,29.89,WSW,238,7.0,13.0,82,0.00,,---,0.00,155.00,VWS V14.01,2013-04-13 13:06:00,
2013-04-13 09:11:00,41.9,36.8,29.89,SW,233,4.0,13.0,82,0.00,,---,0.00,144.00,VWS V14.01,2013-04-13 13:11:00,
2013-04-13 09:16:00,41.9,36.5,29.89,SW,234,7.0,15.0,81,0.00,,---,0.00,130.00,VWS V14.01,2013-04-13 13:16:00,
2013-04-13 09:22:00,42.0,36.6,29.89,WSW,254,6.0,15.0,81,0.00,,---,0.00,178.00,VWS V14.01,2013-04-13 13:22:00,
2013-04-13 09:27:00,42.0,36.3,29.88,WSW,250,11.0,15.0,80,0.00,,---,0.00,185.00,VWS V14.01,2013-04-13 13:27:00,
2013-04-13 09:30:00,42.1,36.7,29.89,WSW,237,7.0,15.0,81,0.00,,---,0.00,178.00,VWS V14.01,2013-04-13 13:30:00,
2013-04-13 09:32:00,42.2,36.8,29.89,WSW,242,5.0,12.0,81,0.00,,---,0.00,153.00,VWS V14.01,2013-04-13 13:32:00,
2013-04-13 09:37:00,42.2,36.8,29.89,WSW,239,9.0,14.0,81,0.00,,---,0.00,134.00,VWS V14.01,2013-04-13 13:37:00,
2013-04-13 09:42:00,42.1,36.4,29.89,WSW,243,10.0,15.0,80,0.00,,---,0.00,107.00,VWS V14.01,2013-04-13 13:42:00,
2013-04-13 09:47:00,42.0,36.3,29.90,West,267,8.0,16.0,80,0.00,,---,0.00,118.00,VWS V14.01,2013-04-13 13:47:00,
2013-04-13 09:52:00,42.0,36.3,29.90,WSW,244,9.0,16.0,80,0.00,,---,0.00,114.00,VWS V14.01,2013-04-13 13:52:00,
2013-04-13 09:57:00,41.9,36.2,29.90,WSW,247,7.0,16.0,80,0.00,,---,0.00,116.00,VWS V14.01,2013-04-13 13:57:00,
2013-04-13 10:00:00,41.9,36.2,29.90,WSW,245,6.0,16.0,80,0.00,,---,0.00,169.00,VWS V14.01,2013-04-13 14:00:00,
2013-04-13 10:03:00,42.0,36.6,29.90,WSW,258,12.0,14.0,81,0.00,,---,0.00,162.00,VWS V14.01,2013-04-13 14:03:00,
2013-04-13 10:08:00,42.1,36.4,29.90,SW,225,6.0,14.0,80,0.00,,---,0.00,155.00,VWS V14.01,2013-04-13 14:08:00,
2013-04-13 10:13:00,42.2,35.8,29.90,WSW,239,4.0,14.0,78,0.00,,---,0.00,186.00,VWS V14.01,2013-04-13 14:13:00,
2013-04-13 10:18:00,42.3,35.9,29.90,WSW,246,10.0,16.0,78,0.00,,---,0.00,148.00,VWS V14.01,2013-04-13 14:18:00,
2013-04-13 10:23:00,42.4,36.0,29.90,SW,224,11.0,16.0,78,0.00,,---,0.00,130.00,VWS V14.01,2013-04-13 14:23:00,
2013-04-13 10:28:00,42.5,36.1,29.90,WSW,240,6.0,16.0,78,0.00,,---,0.00,229.00,VWS V14.01,2013-04-13 14:28:00,
2013-04-13 10:30:00,42.5,36.1,29.90,West,265,11.0,16.0,78,0.00,,---,0.00,244.00,VWS V14.01,2013-04-13 14:30:00,
2013-04-13 10:33:00,42.6,35.9,29.90,WSW,244,10.0,14.0,77,0.00,,---,0.00,243.00,VWS V14.01,2013-04-13 14:33:00,
2013-04-13 10:38:00,42.8,35.1,29.90,WSW,248,9.0,16.0,74,0.00,,---,0.00,172.00,VWS V14.01,2013-04-13 14:38:00,
2013-04-13 10:44:00,42.9,35.2,29.90,SW,227,10.0,16.0,74,0.00,,---,0.00,206.00,VWS V14.01,2013-04-13 14:44:00,
2013-04-13 10:49:00,42.9,34.8,29.91,West,261,10.0,16.0,73,0.00,,---,0.00,160.00,VWS V14.01,2013-04-13 14:49:00,
2013-04-13 10:54:00,42.9,35.2,29.91,WSW,249,6.0,16.0,74,0.00,,---,0.00,192.00,VWS V14.01,2013-04-13 14:54:00,
2013-04-13 10:59:00,43.0,35.3,29.91,WSW,240,13.0,16.0,74,0.00,,---,0.00,216.00,VWS V14.01,2013-04-13 14:59:00,
2013-04-13 11:00:00,43.1,35.4,29.91,WSW,242,13.0,16.0,74,0.00,,---,0.00,209.00,VWS V14.01,2013-04-13 15:00:00,
2013-04-13 11:04:00,43.1,34.7,29.91,West,261,9.0,16.0,72,0.00,,---,0.00,181.00,VWS V14.01,2013-04-13 15:04:00,
2013-04-13 11:09:00,43.1,35.0,29.91,WSW,242,9.0,18.0,73,0.00,,---,0.00,167.00,VWS V14.01,2013-04-13 15:09:00,
2013-04-13 11:14:00,43.1,34.7,29.91,WSW,248,6.0,18.0,72,0.00,,---,0.00,160.00,VWS V14.01,2013-04-13 15:14:00,
2013-04-13 11:19:00,43.2,34.8,29.91,SW,226,12.0,18.0,72,0.00,,---,0.00,179.00,VWS V14.01,2013-04-13 15:19:00,
2013-04-13 11:24:00,43.2,34.5,29.92,WSW,242,6.0,19.0,71,0.00,,---,0.00,179.00,VWS V14.01,2013-04-13 15:24:00,
2013-04-13 11:29:00,43.3,35.2,29.92,WSW,244,9.0,19.0,73,0.00,,---,0.00,160.00,VWS V14.01,2013-04-13 15:29:00,
2013-04-13 11:30:00,43.4,35.3,29.92,SSW,213,13.0,19.0,73,0.00,,---,0.00,155.00,VWS V14.01,2013-04-13 15:30:00,
2013-04-13 11:34:00,43.3,34.5,29.92,SW,231,13.0,17.0,71,0.00,,---,0.00,148.00,VWS V14.01,2013-04-13 15:34:00,
2013-04-13 11:39:00,43.3,34.5,29.91,West,265,13.0,20.0,71,0.00,,---,0.00,200.00,VWS V14.01,2013-04-13 15:39:00,
2013-04-13 11:45:00,43.3,34.9,29.92,WSW,246,10.0,20.0,72,0.00,,---,0.00,276.00,VWS V14.01,2013-04-13 15:45:00,
2013-04-13 11:50:00,43.4,35.3,29.92,WSW,257,10.0,20.0,73,0.00,,---,0.00,156.00,VWS V14.01,2013-04-13 15:50:00,
2013-04-13 11:55:00,43.5,35.8,29.92,SW,232,10.0,20.0,74,0.00,,---,0.00,142.00,VWS V14.01,2013-04-13 15:55:00,
2013-04-13 12:00:00,43.5,35.4,29.92,West,262,8.0,20.0,73,0.00,,---,0.00,178.00,VWS V14.01,2013-04-13 16:00:00,
2013-04-13 12:05:00,43.6,35.5,29.92,WSW,248,11.0,18.0,73,0.00,,---,0.00,258.00,VWS V14.01,2013-04-13 16:05:00,
2013-04-13 12:10:00,43.6,35.5,29.92,WSW,247,10.0,18.0,73,0.00,,---,0.00,216.00,VWS V14.01,2013-04-13 16:10:00,
2013-04-13 12:15:00,43.7,35.6,29.93,WSW,240,15.0,18.0,73,0.00,,---,0.00,190.00,VWS V14.01,2013-04-13 16:15:00,
2013-04-13 12:20:00,43.7,35.3,29.93,WSW,251,14.0,18.0,72,0.00,,---,0.00,174.00,VWS V14.01,2013-04-13 16:20:00,
2013-04-13 12:25:00,43.7,35.3,29.93,SW,231,16.0,21.0,72,0.00,,---,0.00,262.00,VWS V14.01,2013-04-13 16:25:00,
2013-04-13 12:30:00,43.9,35.8,29.92,SW,224,10.0,21.0,73,0.00,,---,0.00,418.00,VWS V14.01,2013-04-13 16:30:00,
2013-04-13 12:35:00,44.1,35.7,29.91,WSW,246,13.0,21.0,72,0.00,,---,0.00,357.00,VWS V14.01,2013-04-13 16:35:00,
2013-04-13 12:40:00,44.3,36.2,29.91,West,259,9.0,22.0,73,0.00,,---,0.00,510.00,VWS V14.01,2013-04-13 16:40:00,
2013-04-13 12:45:00,44.9,37.1,29.91,SW,234,12.0,22.0,74,0.00,,---,0.00,429.00,VWS V14.01,2013-04-13 16:45:00,
2013-04-13 12:50:00,45.2,36.4,29.91,SW,229,9.0,22.0,71,0.00,,---,0.00,350.00,VWS V14.01,2013-04-13 16:50:00,
2013-04-13 12:55:00,45.2,36.0,29.91,SW,218,8.0,22.0,70,0.00,,---,0.00,459.00,VWS V14.01,2013-04-13 16:55:00,
2013-04-13 13:00:00,45.5,36.7,29.90,SW,235,13.0,14.0,71,0.00,,---,0.00,510.00,VWS V14.01,2013-04-13 17:00:00,
2013-04-13 13:06:00,45.7,36.5,29.90,WSW,242,14.0,20.0,70,0.00,,---,0.00,468.00,VWS V14.01,2013-04-13 17:06:00,
2013-04-13 13:11:00,45.7,36.5,29.90,WSW,254,13.0,20.0,70,0.00,,---,0.00,371.00,VWS V14.01,2013-04-13 17:11:00,
2013-04-13 13:16:00,45.9,37.0,29.90,WSW,248,12.0,20.0,71,0.00,,---,0.00,339.00,VWS V14.01,2013-04-13 17:16:00,
2013-04-13 13:21:00,46.0,37.1,29.91,SW,220,16.0,20.0,71,0.00,,---,0.00,369.00,VWS V14.01,2013-04-13 17:21:00,
2013-04-13 13:26:00,46.0,36.4,29.90,SSW,199,11.0,22.0,69,0.00,,---,0.00,315.00,VWS V14.01,2013-04-13 17:26:00,
2013-04-13 13:30:00,46.0,36.8,29.91,WSW,238,12.0,22.0,70,0.00,,---,0.00,338.00,VWS V14.01,2013-04-13 17:30:00,
2013-04-13 13:31:00,46.1,36.9,29.91,SW,231,9.0,15.0,70,0.00,,---,0.00,362.00,VWS V14.01,2013-04-13 17:31:00,
2013-04-13 13:36:00,46.1,37.2,29.90,WSW,251,12.0,22.0,71,0.00,,---,0.00,302.00,VWS V14.01,2013-04-13 17:36:00,
2013-04-13 13:41:00,46.3,37.4,29.90,WSW,252,10.0,22.0,71,0.00,,---,0.00,308.00,VWS V14.01,2013-04-13 17:41:00,
2013-04-13 13:47:00,46.4,37.2,29.90,SW,236,11.0,22.0,70,0.00,,---,0.00,243.00,VWS V14.01,2013-04-13 17:47:00,
2013-04-13 13:52:00,46.3,36.7,29.91,SSW,213,14.0,22.0,69,0.00,,---,0.00,287.00,VWS V14.01,2013-04-13 17:52:00,
2013-04-13 13:57:00,46.4,37.2,29.91,SW,236,10.0,22.0,70,0.00,,---,0.00,163.00,VWS V14.01,2013-04-13 17:57:00,
2013-04-13 14:00:00,46.3,36.7,29.91,WSW,252,13.0,22.0,69,0.00,,---,0.00,162.00,VWS V14.01,2013-04-13 18:00:00,
2013-04-13 14:02:00,46.3,36.7,29.91,WSW,242,13.0,16.0,69,0.00,,---,0.00,265.00,VWS V14.01,2013-04-13 18:02:00,
2013-04-13 14:07:00,46.3,37.4,29.91,WSW,244,13.0,22.0,71,0.00,,---,0.00,234.00,VWS V14.01,2013-04-13 18:07:00,
2013-04-13 14:12:00,46.4,36.8,29.91,WSW,244,15.0,22.0,69,0.00,,---,0.00,323.00,VWS V14.01,2013-04-13 18:12:00,
2013-04-13 14:17:00,46.4,36.8,29.90,WSW,250,11.0,22.0,69,0.00,,---,0.00,199.00,VWS V14.01,2013-04-13 18:17:00,
2013-04-13 14:22:00,46.5,36.9,29.90,SW,232,7.0,22.0,69,0.00,,---,0.00,202.00,VWS V14.01,2013-04-13 18:22:00,
2013-04-13 14:27:00,46.5,36.9,29.90,WSW,249,13.0,22.0,69,0.00,,---,0.00,253.00,VWS V14.01,2013-04-13 18:27:00,
2013-04-13 14:30:00,46.5,37.3,29.90,WSW,240,5.0,22.0,70,0.00,,---,0.00,323.00,VWS V14.01,2013-04-13 18:30:00,
2013-04-13 14:32:00,46.5,37.6,29.90,WSW,250,11.0,15.0,71,0.00,,---,0.00,401.00,VWS V14.01,2013-04-13 18:32:00,
2013-04-13 14:37:00,46.9,38.0,29.90,SW,234,10.0,16.0,71,0.00,,---,0.00,418.00,VWS V14.01,2013-04-13 18:37:00,
2013-04-13 14:42:00,47.4,37.8,29.90,SW,225,14.0,17.0,69,0.00,,---,0.00,345.00,VWS V14.01,2013-04-13 18:42:00,
2013-04-13 14:47:00,47.4,37.8,29.90,WSW,250,13.0,21.0,69,0.00,,---,0.00,309.00,VWS V14.01,2013-04-13 18:47:00,
2013-04-13 14:52:00,47.7,38.4,29.90,WSW,254,10.0,21.0,70,0.00,,---,0.00,1245.00,VWS V14.01,2013-04-13 18:52:00,
2013-04-13 14:57:00,48.3,38.6,29.90,WSW,257,9.0,21.0,69,0.00,,---,0.00,462.00,VWS V14.01,2013-04-13 18:57:00,
2013-04-13 15:00:00,48.4,38.3,29.90,SW,217,10.0,21.0,68,0.00,,---,0.00,260.00,VWS V14.01,2013-04-13 19:00:00,
2013-04-13 15:02:00,48.4,38.3,29.90,WSW,252,9.0,13.0,68,0.00,,---,0.00,302.00,VWS V14.01,2013-04-13 19:02:00,
2013-04-13 15:08:00,48.1,38.0,29.90,WSW,250,13.0,19.0,68,0.00,,---,0.00,302.00,VWS V14.01,2013-04-13 19:08:00,
2013-04-13 15:13:00,47.9,38.2,29.90,West,261,9.0,19.0,69,0.00,,---,0.00,468.00,VWS V14.01,2013-04-13 19:13:00,
2013-04-13 15:18:00,48.3,39.3,29.90,WSW,254,15.0,19.0,71,0.00,,---,0.00,399.00,VWS V14.01,2013-04-13 19:18:00,
2013-04-13 15:23:00,48.4,38.3,29.90,WSW,250,11.0,19.0,68,0.00,,---,0.00,246.00,VWS V14.01,2013-04-13 19:23:00,
2013-04-13 15:28:00,48.3,38.6,29.89,WSW,251,7.0,19.0,69,0.00,,---,0.00,406.00,VWS V14.01,2013-04-13 19:28:00,
2013-04-13 15:30:00,48.4,38.7,29.90,WSW,248,6.0,19.0,69,0.00,,---,0.00,408.00,VWS V14.01,2013-04-13 19:30:00,
2013-04-13 15:33:00,48.5,38.8,29.90,WSW,258,13.0,16.0,69,0.00,,---,0.00,309.00,VWS V14.01,2013-04-13 19:33:00,
2013-04-13 15:38:00,48.6,38.5,29.89,WSW,244,12.0,16.0,68,0.00,,---,0.00,362.00,VWS V14.01,2013-04-13 19:38:00,
2013-04-13 15:43:00,48.7,37.9,29.89,West,269,15.0,21.0,66,0.00,,---,0.00,262.00,VWS V14.01,2013-04-13 19:43:00,
2013-04-13 15:48:00,48.9,39.2,29.90,SW,236,11.0,21.0,69,0.00,,---,0.00,559.00,VWS V14.01,2013-04-13 19:48:00,
2013-04-13 15:53:00,49.2,38.7,29.89,WSW,244,11.0,21.0,67,0.00,,---,0.00,274.00,VWS V14.01,2013-04-13 19:53:00,
2013-04-13 15:58:00,49.3,38.8,29.90,WSW,252,13.0,21.0,67,0.00,,---,0.00,278.00,VWS V14.01,2013-04-13 19:58:00,
2013-04-13 16:00:00,49.3,38.4,29.89,WSW,251,17.0,22.0,66,0.00,,---,0.00,283.00,VWS V14.01,2013-04-13 20:00:00,
2013-04-13 16:03:00,49.2,38.0,29.89,WSW,242,11.0,21.0,65,0.00,,---,0.00,352.00,VWS V14.01,2013-04-13 20:03:00,
2013-04-13 16:08:00,49.5,38.6,29.89,West,263,12.0,21.0,66,0.00,,---,0.00,381.00,VWS V14.01,2013-04-13 20:08:00,
2013-04-13 16:14:00,49.7,38.8,29.89,WSW,246,16.0,21.0,66,0.00,,---,0.00,322.00,VWS V14.01,2013-04-13 20:14:00,
2013-04-13 16:19:00,49.7,38.4,29.89,West,272,18.0,21.0,65,0.00,,---,0.00,329.00,VWS V14.01,2013-04-13 20:19:00,
2013-04-13 16:24:00,49.6,38.3,29.89,WSW,255,10.0,21.0,65,0.00,,---,0.00,566.00,VWS V14.01,2013-04-13 20:24:00,
2013-04-13 16:29:00,49.8,39.3,29.89,WSW,239,6.0,21.0,67,0.00,,---,0.00,323.00,VWS V14.01,2013-04-13 20:29:00,
2013-04-13 16:30:00,49.9,39.8,29.89,West,273,6.0,21.0,68,0.00,,---,0.00,323.00,VWS V14.01,2013-04-13 20:30:00,
2013-04-13 16:34:00,50.2,39.3,29.89,WSW,256,8.0,19.0,66,0.00,,---,0.00,364.00,VWS V14.01,2013-04-13 20:34:00,
2013-04-13 16:39:00,50.5,39.2,29.89,West,261,12.0,19.0,65,0.00,,---,0.00,255.00,VWS V14.01,2013-04-13 20:39:00,
2013-04-13 16:44:00,51.0,40.1,29.88,WSW,250,16.0,19.0,66,0.00,,---,0.00,837.00,VWS V14.01,2013-04-13 20:44:00,
2013-04-13 16:49:00,51.1,39.8,29.88,WSW,257,10.0,19.0,65,0.00,,---,0.00,244.00,VWS V14.01,2013-04-13 20:49:00,
2013-04-13 16:54:00,50.8,39.1,29.89,WSW,246,13.0,19.0,64,0.00,,---,0.00,294.00,VWS V14.01,2013-04-13 20:54:00,
2013-04-13 16:59:00,50.6,38.9,29.88,WSW,252,13.0,19.0,64,0.00,,---,0.00,192.00,VWS V14.01,2013-04-13 20:59:00,
2013-04-13 17:00:00,50.6,38.9,29.88,West,267,11.0,19.0,64,0.00,,---,0.00,181.00,VWS V14.01,2013-04-13 21:00:00,
2013-04-13 17:04:00,50.5,39.2,29.88,WSW,255,11.0,16.0,65,0.00,,---,0.00,251.00,VWS V14.01,2013-04-13 21:04:00,
2013-04-13 17:09:00,50.4,39.5,29.88,SW,233,5.0,17.0,66,0.00,,---,0.00,295.00,VWS V14.01,2013-04-13 21:09:00,
2013-04-13 17:14:00,50.6,40.1,29.88,SW,236,13.0,17.0,67,0.00,,---,0.00,227.00,VWS V14.01,2013-04-13 21:14:00,
2013-04-13 17:19:00,50.8,39.5,29.88,WSW,240,13.0,17.0,65,0.00,,---,0.00,195.00,VWS V14.01,2013-04-13 21:19:00,
2013-04-13 17:24:00,50.8,39.5,29.88,WSW,256,15.0,17.0,65,0.00,,---,0.00,246.00,VWS V14.01,2013-04-13 21:24:00,
2013-04-13 17:29:00,51.0,39.7,29.88,WSW,257,8.0,17.0,65,0.00,,---,0.00,297.00,VWS V14.01,2013-04-13 21:29:00,
2013-04-13 17:30:00,51.0,39.7,29.88,West,262,12.0,17.0,65,0.00,,---,0.00,297.00,VWS V14.01,2013-04-13 21:30:00,
2013-04-13 17:34:00,51.4,39.2,29.88,WSW,250,16.0,19.0,63,0.00,,---,0.00,195.00,VWS V14.01,2013-04-13 21:34:00,
2013-04-13 17:39:00,51.7,40.3,29.88,WSW,237,7.0,19.0,65,0.00,,---,0.00,195.00,VWS V14.01,2013-04-13 21:39:00,
2013-04-13 17:44:00,51.9,40.1,29.88,West,265,14.0,19.0,64,0.00,,---,0.00,441.00,VWS V14.01,2013-04-13 21:44:00,
2013-04-13 17:49:00,52.3,39.7,29.88,West,270,16.0,19.0,62,0.00,,---,0.00,181.00,VWS V14.01,2013-04-13 21:49:00,
2013-04-13 17:54:00,52.4,39.4,29.88,WSW,252,21.0,22.0,61,0.00,,---,0.00,181.00,VWS V14.01,2013-04-13 21:54:00,
2013-04-13 17:59:00,52.6,39.5,29.88,WSW,238,10.0,22.0,61,0.00,,---,0.00,295.00,VWS V14.01,2013-04-13 21:59:00,
2013-04-13 18:00:00,52.6,39.5,29.88,WSW,255,17.0,22.0,61,0.00,,---,0.00,295.00,VWS V14.01,2013-04-13 22:00:00,
2013-04-13 18:04:00,52.8,39.7,29.88,West,261,9.0,19.0,61,0.00,,---,0.00,299.00,VWS V14.01,2013-04-13 22:04:00,
2013-04-13 18:09:00,52.9,39.4,29.88,SW,235,14.0,19.0,60,0.00,,---,0.00,278.00,VWS V14.01,2013-04-13 22:09:00,
2013-04-13 18:14:00,52.8,39.3,29.88,WSW,250,9.0,19.0,60,0.00,,---,0.00,156.00,VWS V14.01,2013-04-13 22:14:00,
2013-04-13 18:19:00,52.8,39.3,29.88,WSW,254,6.0,19.0,60,0.00,,---,0.00,320.00,VWS V14.01,2013-04-13 22:19:00,
2013-04-13 18:24:00,52.9,39.4,29.88,WNW,290,17.0,19.0,60,0.00,,---,0.00,283.00,VWS V14.01,2013-04-13 22:24:00,
2013-04-13 18:29:00,52.9,39.0,29.88,WSW,256,13.0,22.0,59,0.00,,---,0.00,225.00,VWS V14.01,2013-04-13 22:29:00,
2013-04-13 18:30:00,52.9,39.8,29.88,WSW,251,14.0,22.0,61,0.00,,---,0.00,132.00,VWS V14.01,2013-04-13 22:30:00,
2013-04-13 18:34:00,52.7,38.8,29.89,West,266,12.0,20.0,59,0.00,,---,0.00,142.00,VWS V14.01,2013-04-13 22:34:00,
2013-04-13 18:39:00,52.7,39.6,29.89,West,273,10.0,20.0,61,0.00,,---,0.00,343.00,VWS V14.01,2013-04-13 22:39:00,
2013-04-13 18:44:00,52.9,39.4,29.89,West,264,11.0,20.0,60,0.00,,---,0.00,232.00,VWS V14.01,2013-04-13 22:44:00,
2013-04-13 18:49:00,53.0,39.5,29.89,WNW,288,10.0,20.0,60,0.00,,---,0.00,313.00,VWS V14.01,2013-04-13 22:49:00,
2013-04-13 18:54:00,52.8,40.2,29.89,West,259,3.0,20.0,62,0.00,,---,0.00,236.00,VWS V14.01,2013-04-13 22:54:00,
2013-04-13 18:59:00,52.8,39.7,29.90,WNW,298,6.0,20.0,61,0.00,,---,0.00,190.00,VWS V14.01,2013-04-13 22:59:00,
2013-04-13 19:00:00,52.7,39.6,29.90,WNW,298,4.0,20.0,61,0.00,,---,0.00,183.00,VWS V14.01,2013-04-13 23:00:00,
2013-04-13 19:04:00,52.4,39.8,29.90,West,263,6.0,12.0,62,0.00,,---,0.00,165.00,VWS V14.01,2013-04-13 23:04:00,
2013-04-13 19:09:00,51.8,39.6,29.90,WNW,302,2.0,12.0,63,0.00,,---,0.00,100.00,VWS V14.01,2013-04-13 23:09:00,
2013-04-13 19:14:00,51.2,39.0,29.90,West,267,8.0,14.0,63,0.00,,---,0.00,90.00,VWS V14.01,2013-04-13 23:14:00,
2013-04-13 19:19:00,50.7,39.0,29.90,West,279,6.0,14.0,64,0.00,,---,0.00,105.00,VWS V14.01,2013-04-13 23:19:00,
2013-04-13 19:24:00,50.3,39.0,29.91,WNW,301,5.0,14.0,65,0.00,,---,0.00,84.00,VWS V14.01,2013-04-13 23:24:00,
2013-04-13 19:29:00,50.0,39.1,29.91,WNW,290,4.0,14.0,66,0.00,,---,0.00,65.00,VWS V14.01,2013-04-13 23:29:00,
2013-04-13 19:30:00,49.9,39.0,29.91,West,276,6.0,14.0,66,0.00,,---,0.00,63.00,VWS V14.01,2013-04-13 23:30:00,
2013-04-13 19:34:00,49.7,38.8,29.91,WNW,292,3.0,10.0,66,0.00,,---,0.00,51.00,VWS V14.01,2013-04-13 23:34:00,
2013-04-13 19:39:00,49.4,38.9,29.91,WNW,299,4.0,14.0,67,0.00,,---,0.00,39.00,VWS V14.01,2013-04-13 23:39:00,
2013-04-13 19:45:00,49.0,38.9,29.91,NW,323,11.0,14.0,68,0.00,,---,0.00,30.00,VWS V14.01,2013-04-13 23:45:00,
2013-04-13 19:50:00,48.4,38.7,29.91,WNW,302,1.0,14.0,69,0.00,,---,0.00,21.00,VWS V14.01,2013-04-13 23:50:00,
2013-04-13 19:55:00,47.9,38.6,29.92,NW,306,8.0,14.0,70,0.00,,---,0.00,14.00,VWS V14.01,2013-04-13 23:55:00,
2013-04-13 20:00:00,47.2,38.3,29.92,NW,310,5.0,14.0,71,0.00,,---,0.00,11.00,VWS V14.01,2013-04-14 00:00:00,
2013-04-13 20:05:00,46.5,38.3,29.92,NW,321,6.0,11.0,73,0.00,,---,0.00,7.00,VWS V14.01,2013-04-14 00:05:00,
2013-04-13 20:10:00,46.0,38.2,29.93,NW,310,2.0,11.0,74,0.00,,---,0.00,0.00,VWS V14.01,2013-04-14 00:10:00,
2013-04-13 20:15:00,45.4,38.0,29.93,NW,308,3.0,11.0,75,0.00,,---,0.00,0.00,VWS V14.01,2013-04-14 00:15:00,
2013-04-13 20:20:00,45.0,37.9,29.93,NW,315,1.0,11.0,76,0.00,,---,0.00,0.00,VWS V14.01,2013-04-14 00:20:00,
2013-04-13 20:25:00,44.5,37.4,29.94,NW,321,3.0,11.0,76,0.00,,---,0.00,0.00,VWS V14.01,2013-04-14 00:25:00,
2013-04-13 20:30:00,44.2,37.5,29.94,NNW,331,1.0,11.0,77,0.00,,---,0.00,0.00,VWS V14.01,2013-04-14 00:30:00,
2013-04-13 20:35:00,44.0,37.3,29.94,NNW,330,4.0,4.0,77,0.00,,---,0.00,0.00,VWS V14.01,2013-04-14 00:35:00,
2013-04-13 20:40:00,43.7,37.3,29.94,NW,313,3.0,4.0,78,0.00,,---,0.00,0.00,VWS V14.01,2013-04-14 00:40:00,
2013-04-13 20:45:00,43.4,37.0,29.94,NNW,348,0.0,5.0,78,0.00,,---,0.00,0.00,VWS V14.01,2013-04-14 00:45:00,
2013-04-13 20:50:00,43.2,36.8,29.95,NW,309,0.0,5.0,78,0.00,,---,0.00,0.00,VWS V14.01,2013-04-14 00:50:00,
2013-04-13 20:55:00,42.9,36.8,29.95,NNW,345,5.0,7.0,79,0.00,,---,0.00,0.00,VWS V14.01,2013-04-14 00:55:00,
2013-04-13 21:00:00,42.7,36.7,29.95,North,350,1.0,7.0,79,0.00,,---,0.00,0.00,VWS V14.01,2013-04-14 01:00:00,
2013-04-13 21:05:00,42.5,36.5,29.95,NNW,332,0.0,5.0,79,0.00,,---,0.00,0.00,VWS V14.01,2013-04-14 01:05:00,
2013-04-13 21:10:00,42.4,36.4,29.95,NNW,338,3.0,5.0,79,0.00,,---,0.00,0.00,VWS V14.01,2013-04-14 01:10:00,
2013-04-13 21:15:00,42.3,36.3,29.96,NNW,332,0.0,5.0,79,0.00,,---,0.00,0.00,VWS V14.01,2013-04-14 01:15:00,
2013-04-13 21:20:00,42.1,36.1,29.96,NNW,332,0.0,5.0,79,0.00,,---,0.00,0.00,VWS V14.01,2013-04-14 01:20:00,
2013-04-13 21:25:00,41.9,35.9,29.96,NNW,332,0.0,5.0,79,0.00,,---,0.00,0.00,VWS V14.01,2013-04-14 01:25:00,
2013-04-13 21:30:00,41.7,35.7,29.96,NNW,331,1.0,5.0,79,0.00,,---,0.00,0.00,VWS V14.01,2013-04-14 01:30:00,
2013-04-13 21:35:00,41.6,35.9,29.96,NNW,332,0.0,2.0,80,0.00,,---,0.00,0.00,VWS V14.01,2013-04-14 01:35:00,
2013-04-13 21:40:00,41.4,35.7,29.97,NNW,332,0.0,3.0,80,0.00,,---,0.00,0.00,VWS V14.01,2013-04-14 01:40:00,
2013-04-13 21:45:00,41.3,35.6,29.97,NNW,329,0.0,3.0,80,0.00,,---,0.00,0.00,VWS V14.01,2013-04-14 01:45:00,
2013-04-13 21:50:00,41.3,35.6,29.97,NNW,329,0.0,3.0,80,0.00,,---,0.00,0.00,VWS V14.01,2013-04-14 01:50:00,
2013-04-13 21:55:00,41.2,35.5,29.97,NNW,329,0.0,3.0,80,0.00,,---,0.00,0.00,VWS V14.01,2013-04-14 01:55:00,
2013-04-13 22:00:00,41.1,35.4,29.97,NNW,329,0.0,3.0,80,0.00,,---,0.00,0.00,VWS V14.01,2013-04-14 02:00:00,
2013-04-13 22:05:00,41.1,35.4,29.97,NNW,330,0.0,2.0,80,0.00,,---,0.00,0.00,VWS V14.01,2013-04-14 02:05:00,
2013-04-13 22:10:00,40.9,35.2,29.97,NNW,330,1.0,2.0,80,0.00,,---,0.00,0.00,VWS V14.01,2013-04-14 02:10:00,
2013-04-13 22:15:00,40.9,35.2,29.98,NNW,330,0.0,2.0,80,0.00,,---,0.00,0.00,VWS V14.01,2013-04-14 02:15:00,
2013-04-13 22:20:00,40.7,35.0,29.98,NNW,331,1.0,3.0,80,0.00,,---,0.00,0.00,VWS V14.01,2013-04-14 02:20:00,
2013-04-13 22:25:00,40.6,34.9,29.98,NNW,336,1.0,4.0,80,0.00,,---,0.00,0.00,VWS V14.01,2013-04-14 02:25:00,
2013-04-13 22:30:00,40.4,34.7,29.98,NNW,336,0.0,0.0,80,0.00,,---,0.00,0.00,VWS V14.01,2013-04-14 02:30:00,
2013-04-13 22:35:00,40.3,34.6,29.99,NNW,336,0.0,3.0,80,0.00,,---,0.00,0.00,VWS V14.01,2013-04-14 02:35:00,
2013-04-13 22:40:00,40.2,34.5,29.99,NNW,336,0.0,4.0,80,0.00,,---,0.00,0.00,VWS V14.01,2013-04-14 02:40:00,
2013-04-13 22:45:00,40.1,34.4,29.99,NNW,342,0.0,4.0,80,0.00,,---,0.00,0.00,VWS V14.01,2013-04-14 02:45:00,
2013-04-13 22:50:00,40.0,34.3,29.99,NNW,342,1.0,4.0,80,0.00,,---,0.00,0.00,VWS V14.01,2013-04-14 02:50:00,
2013-04-13 22:55:00,39.9,33.9,30.00,NNW,342,0.0,4.0,79,0.00,,---,0.00,0.00,VWS V14.01,2013-04-14 02:55:00,
2013-04-13 23:00:00,39.8,33.8,30.00,NNW,342,0.0,4.0,79,0.00,,---,0.00,0.00,VWS V14.01,2013-04-14 03:00:00,
2013-04-13 23:05:00,39.7,33.7,29.99,NNW,342,0.0,1.0,79,0.00,,---,0.00,0.00,VWS V14.01,2013-04-14 03:05:00,
2013-04-13 23:10:00,39.6,33.6,29.99,NNW,342,0.0,1.0,79,0.00,,---,0.00,0.00,VWS V14.01,2013-04-14 03:10:00,
2013-04-13 23:15:00,39.5,33.5,29.99,NNW,342,0.0,1.0,79,0.00,,---,0.00,0.00,VWS V14.01,2013-04-14 03:15:00,
2013-04-13 23:20:00,39.4,33.4,30.00,NNW,342,0.0,1.0,79,0.00,,---,0.00,0.00,VWS V14.01,2013-04-14 03:20:00,
2013-04-13 23:25:00,39.2,33.2,30.00,NNW,342,0.0,1.0,79,0.00,,---,0.00,0.00,VWS V14.01,2013-04-14 03:25:00,
2013-04-13 23:30:00,38.9,33.3,30.00,NNW,342,0.0,0.0,80,0.00,,---,0.00,0.00,VWS V14.01,2013-04-14 03:30:00,
2013-04-13 23:35:00,38.7,33.1,30.00,NNW,342,0.0,0.0,80,0.00,,---,0.00,0.00,VWS V14.01,2013-04-14 03:35:00,
2013-04-13 23:41:00,38.6,33.3,30.00,NNW,342,0.0,0.0,81,0.00,,---,0.00,0.00,VWS V14.01,2013-04-14 03:41:00,
2013-04-13 23:46:00,38.4,33.1,30.00,NNW,342,0.0,0.0,81,0.00,,---,0.00,0.00,VWS V14.01,2013-04-14 03:46:00,
2013-04-13 23:51:00,38.1,32.8,30.00,NNW,342,0.0,0.0,81,0.00,,---,0.00,0.00,VWS V14.01,2013-04-14 03:51:00,
2013-04-13 23:56:00,37.9,32.6,30.00,NNW,342,0.0,0.0,81,0.00,,---,0.00,0.00,VWS V14.01,2013-04-14 03:56:00,